Powrót do katalogu

CZ-4 DEB

AktywnySSO
NORAD 26310·DEBRIS·🇨🇳 China

Wystrzelony Oct 14, 1999 z Taiyuan Satellite Launch Center

Loading…

Następne Przeloty (najbliższe 24 godziny)

TLE

ŚwieżeSource: Space-Track

Epoka: Sep 14, 2026, 10:37 UTC

1 26310U 99057GT  26257.44265128  .00000833  00000-0  22315-3 0  9996
2 26310  98.5228 325.7482 0089471 115.0350 258.6538 14.48573847390137

Śledź CZ-4 DEB w czasie rzeczywistym z AllMySat

Download on the App Store